ATLAS 5 CENTAUR DEB, 44845

Orbit data source: Space-Track

ATLAS 5 CENTAUR DEB, 44845 is space debris in HEO originally from a launch on Wed, 17 Sep 2014 UTC launched from the Air Force Eastern Test Range (AFETR). Debris objects in space refer to the collection of defunct objects orbiting the Earth. Examples of debris include non-operational satellites, rocket bodies, and fragments generated from explosions, collisions, or faulty payload assembly.

Loading next visibility...
Identifier
44845, 2014-055CD
Orbit
HEO
Country
Flag of USUS
Related business
Flag of USUnited Launch Alliance/Lockheed Martin (US)
Manufacturer
Unknown
Mission
Spacecraft
Bus & Motor
Unknown
Mass
Unknown
Launch date (UTC)
2014-09-17 (12 years ago)
Launch vehicle
Unknown
Launch site
Air Force Eastern Test Range (AFETR)
Object type
Payload
Rocket body
Debris
Shape & HBR
Unknown shape, 1.1 m
Radar Cross Section
Medium (>0.1 m² and <1 m²)

Expand to show TLE details & history
Last TLE update: 1 week ago

TLE from 1 week ago
0 ATLAS 5 CENTAUR DEB
1 44845U 14055CD  26200.36087797 -.00000113  00000-0  00000-0 0  9993
2 44845  20.4949 124.7797 4982989 197.9220 135.0423  1.84917973 45029
Epoch: 2026-07-19T08:39Z
TLE epoch observation values (Epoch: 2026-07-19T08:39:39.856Z)
Latitude
0.00003°
Longitude
57.69663°
Altitude
33,728.408 km
Speed
2.379 km/s
True Right ascension
08h 19m 05s
True Declination
0° 00' 00"
Sunlit
Object was in daylight at epoch
Visualization orbit readout
Latitude
Unknown
Longitude
Unknown
Altitude
Unknown
Speed
Unknown
Apparent Right ascension
Unknown
Apparent Declination
Unknown
Sunlit
N/A
Visualization observer readout
Local Sidereal Time
17:58:15
Azimuth
Unknown
Elevation
Unknown
Doppler factor
Unknown
Orbital elements
Apogee altitude
35,634.34 km
Perigee altitude
7,689.621 km
Semi-major axis
28,040.117 km
Eccentricity
0.4983
Inclination
20.4949°
RAAN
124.7797°
Arg. of periapsis
197.922°
True anomaly
162.08362°
Mean anomaly
135.0423°
Eccentric anomaly
149.5229°
Mean motion
0.46225 °/min
Orbital period
778.81 mins
BSTAR
0
Loading maneuver chart data...
Computing Atmospheric mass density...

Documentation

Showing up to 5 results
|